Retour au catalogue

O3BF04

ActifCommunicationsMEO
NORAD 56367·PAYLOAD·🇱🇺 Luxembourg

Lancé Apr 28, 2023 depuis Cape Canaveral Space Force Station

Loading…

Prochains Passages (prochaines 24 heures)

TLE

FraisSource: CelesTrak SupGP

Époque: Sep 13, 2026, 13:59 UTC

1 56367C 23059A   26256.58333333  .00000000  00000+0  00000+0 0  2562
2 56367   0.0602 343.3834 0007709 186.2940 293.5163  5.00115094    13

Suivez O3BF04 en temps réel avec AllMySat

Download on the App Store